RYR33VN LEAL-EICK

Flight info

Callsign RYR33VN
Flight time N/A
Altitude 34000
Route ASTRO L150 RBO N867 BLV N75 DELOG DCT TULTA/M074F340 DCT MAPAG DCT SOVIX SOVIX1R
Aircraft B738/M-SDE2E3FGHIRWXY/LB1

Departure

Time N/A
Airport Alicante-Elche Miguel Hernández Airport (LEAL)

Arrival

Time 2026-04-30 18:10
Airport Cork International Airport (EICK)
Time Latitude Longitude Altitude Speed Heading
2026-04-30 15:11 38.28771 -0.55005 71 ft 0 kts 279°
2026-04-30 17:39 50.90733 -8.47984 27291 ft 434 kts 354°
2026-04-30 17:41 51.13910 -8.52072 24005 ft 407 kts 359°
2026-04-30 17:42 51.19506 -8.52848 23318 ft 397 kts 359°
2026-04-30 17:42 51.27392 -8.54002 22976 ft 363 kts 359°
2026-04-30 17:43 51.32276 -8.54723 22643 ft 347 kts 359°
2026-04-30 17:44 51.39395 -8.55773 21698 ft 340 kts 359°
2026-04-30 17:44 51.46272 -8.55864 20832 ft 317 kts 27°
2026-04-30 17:46 51.52104 -8.43931 19593 ft 257 kts 95°
2026-04-30 17:47 51.50231 -8.33800 18604 ft 237 kts 131°
2026-04-30 17:48 51.44679 -8.28789 17597 ft 234 kts 170°
2026-04-30 17:48 51.39830 -8.28207 16859 ft 232 kts 171°
2026-04-30 17:49 51.33472 -8.27677 15860 ft 232 kts 186°
2026-04-30 17:50 51.28002 -8.33559 14860 ft 257 kts 230°
2026-04-30 17:51 51.26739 -8.42156 14111 ft 282 kts 270°
2026-04-30 17:52 51.29227 -8.50698 13373 ft 293 kts 314°
2026-04-30 17:53 51.38469 -8.55555 12142 ft 285 kts 358°
2026-04-30 17:54 51.46182 -8.57540 11136 ft 279 kts 347°
2026-04-30 17:55 51.53693 -8.60728 10118 ft 272 kts 347°
2026-04-30 17:56 51.60932 -8.63685 9118 ft 266 kts 347°
2026-04-30 17:57 51.66240 -8.65868 8365 ft 259 kts 346°
2026-04-30 17:58 51.71372 -8.67982 8057 ft 255 kts 347°
2026-04-30 17:59 51.78312 -8.70844 7892 ft 258 kts 347°
2026-04-30 18:00 51.85022 -8.73252 6858 ft 234 kts 349°
2026-04-30 18:00 51.89626 -8.74892 6110 ft 223 kts 349°
2026-04-30 18:01 51.92610 -8.75957 6044 ft 220 kts 349°
2026-04-30 18:02 51.97177 -8.77549 5644 ft 224 kts 354°
2026-04-30 18:02 52.00708 -8.74422 5239 ft 199 kts 65°
2026-04-30 18:03 52.02149 -8.68280 4690 ft 192 kts 74°
2026-04-30 18:04 52.02855 -8.62120 4061 ft 180 kts 109°
2026-04-30 18:05 51.99133 -8.57900 3053 ft 169 kts 159°
2026-04-30 18:06 51.94970 -8.55540 2630 ft 156 kts 156°
2026-04-30 18:07 51.91102 -8.53253 1800 ft 148 kts 155°
2026-04-30 18:08 51.88188 -8.51520 1193 ft 150 kts 155°
2026-04-30 18:09 51.84265 -8.49187 485 ft 120 kts 161°
2026-04-30 18:10 51.83646 -8.48830 468 ft 8 kts 346°
2026-04-30 18:11 51.83823 -8.48932 471 ft 6 kts 339°
2026-04-30 18:11 51.84088 -8.49088 478 ft 15 kts 339°
2026-04-30 18:12 51.84336 -8.49044 491 ft 11 kts 58°
2026-04-30 18:13 51.84436 -8.49012 495 ft 6 kts 340°
2026-04-30 18:13 51.84555 -8.49082 499 ft 8 kts 339°
2026-04-30 18:14 51.84661 -8.49145 502 ft 7 kts 340°
2026-04-30 18:15 51.84768 -8.49165 505 ft 2 kts 63°
2026-04-30 18:15 51.84793 -8.49062 511 ft 1 kts 69°
2026-04-30 18:16 51.84797 -8.49043 511 ft 1 kts 70°
2026-04-30 18:16 51.84799 -8.49033 512 ft 0 kts 69°